Regional Weather Roundup
Issued by NWS Jackson, KY

Home | Current Version | Previous Version | Text Only | Print | Product List | Glossary On
Versions: 1 2 3 4 5 6 7 8 9 10 11 12 13 14 15 16 17 18 19 20 21 22 23 24 25 26 27 28 29 30 31 32 33 34 35 36 37 38 39 40 41 42 43 44 45 46 47 48 49 50
000
ASUS43 KJKL 230405
RWRJKL

EAST KENTUCKY HOURLY WEATHER ROUNDUP
NATIONAL WEATHER SERVICE JACKSON KY
1200 AM EDT THU OCT 23 2014

NOTE: "FAIR" INDICATES FEW OR NO CLOUDS BELOW 12,000 FEET WITH
NO SIGNIFICANT WEATHER AND/OR OBSTRUCTIONS TO VISIBILITY.

* THESE REPORTS ARE NOT UNDER NWS QUALITY CONTROL AND MAY NOT
  REPORT WEATHER SUCH AS PRECIPITATION AND FOG.

KYZ079-080-083-085-087-088-110-112-115-119-120-230500
...EASTERN KENTUCKY...

CITY           SKY/WX    TMP DP  RH WIND       PRES   REMARKS
JACKSON        CLOUDY    48  42  80 CALM      30.23F
LONDON         CLOUDY    49  41  74 NE5       30.23F
SOMERSET*      CLOUDY    46  39  76 CALM      30.25F
MONTICELLO*    CLOUDY    48  43  83 CALM      30.25F
WILLIAMSBURG*  CLOUDY    46  46 100 CALM      30.23F
MIDDLESBORO*   CLOUDY    48  42  80 CALM      30.24S
HARLAN APT*    CLOUDY    46  41  81 CALM      30.22S
BLACK MTN*       N/A     36  36 100 N6          N/A  WCI  31
PIKEVILLE APT* CLOUDY    46  43  87 N5        30.22S
BIG SANDY*     CLOUDY    47  43  84 N9        30.22F
MOREHEAD APT*  CLOUDY    48  43  81 CALM      30.27S
$$

KYZ035-036-041-042-044-050-067-078-099-230500
...CENTRAL KENTUCKY...

CITY           SKY/WX    TMP DP  RH WIND       PRES   REMARKS
MT STERLING*   CLOUDY    48  43  81 NE5       30.25F
FLEMING/MASON* CLOUDY    47  40  76 NE5       30.27F
DANVILLE*      MOCLDY    45  41  87 CALM      30.25F
RICHMOND*      CLOUDY    48  41  76 CALM      30.23F
LEXINGTON      CLOUDY    51  41  68 NE7       30.25F
FRANKFORT      PTCLDY    42  38  85 CALM      30.24F
$$

KYZ091>093-OHZ055-061-077-WVZ005-015-034-035-042-230500
...SOUTHERN OHIO/WEST VIRGINIA...

CITY           SKY/WX    TMP DP  RH WIND       PRES   REMARKS
COVINGTON      CLOUDY    49  39  68 E10       30.26S
COLUMBUS       CLOUDY    49  41  74 CALM      30.24F
DAYTON         CLOUDY    46  39  76 CALM      30.27F
WILMINGTON     CLOUDY    47  40  76 NW5       30.25S
HUNTINGTON     CLOUDY    48  40  73 N6        30.23S
CHARLESTON     CLOUDY    48  42  80 NW8       30.20F
PINEVILLE*     CLOUDY    47  46  99 MISG      30.24S
BECKLEY        LGT RAIN  42  40  92 N8        30.17F FOG
BLUEFIELD      CLOUDY    44  39  82 N8        30.17S
$$

VAZ002-007-008-TNZ017-027-036-066-071-230500
...SOUTHWEST VIRGINIA/EAST TENNESSEE...

CITY           SKY/WX    TMP DP  RH WIND       PRES   REMARKS
WISE*          CLOUDY    43  43 100 N5        30.21S
JONESVILLE*    CLOUDY    48  39  71 CALM      30.23F
ABINGDON*      CLOUDY    47  42  83 CALM      30.19S
BRISTOL        CLOUDY    48  41  76 W3        30.20F
KNOXVILLE      PTCLDY    44  39  82 NE5       30.22S
OAK RIDGE      PTCLDY    43  39  86 CALM      30.24S
CROSSVILLE     CLEAR     41  36  82 CALM      30.21F
NASHVILLE      CLEAR     50  43  77 NE5       30.23R
$$

...KEY TO REMARKS...
VSB - VISIBILITY IN MILES
WCI - WIND CHILL INDEX
HX  - HEAT INDEX

$$



USA.gov is the U.S. government's official web portal to all federal, state and local government web resources and services.